DW6873 Weather Reports


Display with metric or nautical units.
time (UTC)temp
F
wind
direction
speed
MPH
gust
MPH
rain 1hr
in
rain 24hr
in
rain mn
in
humidity
%
barometer
mb
20260508013006 53 331 0.0 0.0 0.00 0.00 0.00 36 1008.4
20260508011504 54 326 0.0 0.0 0.00 0.00 0.00 33 1008.3
20260508010006 56 335 0.0 0.0 0.00 0.00 0.00 31 1008.2
20260508004503 58 339 0.0 0.0 0.00 0.00 0.00 28 1008.2
20260508003002 59 339 0.0 0.0 0.00 0.00 0.00 24 1008.2
20260508001559 60 4 0.0 0.0 0.00 0.00 0.00 26 1008.2
20260508000057 59 25 0.0 0.0 0.00 0.00 0.00 25 1008.3
20260507234603 60 344 0.0 0.0 0.00 0.00 0.00 26 1008.3
20260507233055 60 18 0.0 0.0 0.00 0.00 0.00 25 1008.3
20260507231557 61 321 0.0 1.0 0.00 0.00 0.00 24 1008.3
20260507230057 61 349 0.0 0.0 0.00 0.00 0.00 24 1008.3
20260507224552 62 354 0.0 0.0 0.00 0.00 0.00 23 1008.3
20260507223055 62 344 0.0 0.0 0.00 0.00 0.00 23 1008.3
20260507221550 61 347 0.0 0.0 0.00 0.00 0.00 23 1008.6
20260507220044 61 320 0.0 0.0 0.00 0.00 0.00 22 1008.7
20260507214540 61 303 0.0 0.0 0.00 0.00 0.00 24 1008.9
20260507213038 60 340 0.0 0.0 0.00 0.00 0.00 23 1009.2
20260507211535 60 294 0.0 0.0 0.00 0.00 0.00 25 1009.3
20260507210001 59 227 0.0 0.0 0.00 0.00 0.00 25 1009.6
20260507204605 60 349 0.0 0.0 0.00 0.00 0.00 24 1009.7
20260507203106 60 302 0.0 2.0 0.00 0.00 0.00 25 1009.9
20260507201553 58 295 0.0 0.0 0.00 0.00 0.00 24 1010.1
20260507200053 59 326 0.0 0.0 0.00 0.00 0.00 26 1010.2
20260507194551 59 273 0.0 0.0 0.00 0.00 0.00 25 1010.2
20260507193053 58 304 0.0 1.0 0.00 0.00 0.00 27 1010.4
20260507191544 58 299 0.0 0.0 0.00 0.00 0.00 28 1010.4
20260507190042 58 288 0.0 0.0 0.00 0.00 0.00 30 1010.6
20260507184540 57 261 0.0 0.0 0.00 0.00 0.00 28 1010.6
20260507183039 56 288 0.0 0.0 0.00 0.00 0.00 30 1010.8
20260507181532 56 295 0.0 0.0 0.00 0.00 0.00 33 1011.0
20260507180038 55 68 0.0 0.0 0.00 0.00 0.00 29 1011.2
20260507174533 55 293 0.0 0.0 0.00 0.00 0.00 29 1011.4
20260507173102 55 333 0.0 1.0 0.00 0.00 0.00 29 1011.4
20260507171610 54 274 0.0 0.0 0.00 0.00 0.00 30 1011.5
20260507170055 54 287 0.0 0.0 0.00 0.00 0.00 29 1011.5
20260507164601 53 295 0.0 0.0 0.00 0.00 0.00 30 1011.8
20260507163043 53 297 0.0 0.0 0.00 0.00 0.00 31 1011.9
20260507161545 52 326 0.0 0.0 0.00 0.00 0.00 33 1012.0
20260507160011 52 328 0.0 0.0 0.00 0.00 0.00 34 1012.1
20260507154510 51 275 0.0 0.0 0.00 0.00 0.00 38 1012.3
20260507153011 50 294 0.0 0.0 0.00 0.00 0.00 40 1012.4
20260507151508 49 305 0.0 0.0 0.00 0.00 0.00 43 1012.5
20260507150006 47 293 0.0 0.0 0.00 0.00 0.00 46 1012.6
20260507144506 46 259 0.0 1.0 0.00 0.00 0.00 47 1012.5
20260507143038 45 257 0.0 0.0 0.00 0.00 0.00 48 1012.5
20260507141534 45 275 0.0 0.0 0.00 0.00 0.00 50 1012.5
20260507140032 43 296 0.0 0.0 0.00 0.00 0.00 52 1012.5
20260507134539 42 276 0.0 0.0 0.00 0.00 0.00 54 1012.5
20260507133030 40 283 0.0 0.0 0.00 0.00 0.00 57 1012.4
20260507131536 38 264 0.0 0.0 0.00 0.00 0.00 62 1012.3
20260507130029 36 244 0.0 0.0 0.00 0.00 0.00 67 1012.3
20260507124526 33 244 0.0 0.0 0.00 0.00 0.00 76 1012.2
20260507123028 27 244 0.0 0.0 0.00 0.00 0.00 79 1012.1
20260507121525 0 0.0 0.0 0.00 0.00 0.00 1011.9
20260507120018 0 0.0 0.0 0.00 0.00 0.00 1011.9
20260507114524 0 0.0 0.0 0.00 0.00 0.00 1011.8
20260507113010 0 0.0 0.0 0.00 0.00 0.00 1011.8
20260507111510 25 223 0.0 0.0 0.00 0.00 0.00 75 1012.0
20260507110002 25 236 0.0 0.0 0.00 0.00 0.00 73 1011.9
20260507104501 25 212 0.0 0.0 0.00 0.00 0.00 75 1011.8
20260507103100 26 274 0.0 0.0 0.00 0.00 0.00 74 1012.0
20260507101600 25 246 0.0 0.0 0.00 0.00 0.00 76 1012.1
20260507100057 25 269 0.0 0.0 0.00 0.00 0.00 76 1012.1
20260507094610 26 184 0.0 0.0 0.00 0.00 0.00 73 1012.2
20260507093059 26 210 0.0 0.0 0.00 0.00 0.00 73 1012.2
20260507091626 27 210 0.0 0.0 0.00 0.00 0.00 71 1012.2
20260507090105 28 275 0.0 0.0 0.00 0.00 0.00 73 1012.2
20260507084555 27 275 0.0 0.0 0.00 0.00 0.00 75 1012.2
20260507083052 26 275 0.0 0.0 0.00 0.00 0.00 75 1012.2
20260507081548 24 275 0.0 0.0 0.00 0.00 0.00 80 1012.2
20260507080046 23 275 0.0 0.0 0.00 0.00 0.00 76 1012.3
20260507074547 24 275 0.0 0.0 0.00 0.00 0.00 79 1012.4
20260507073045 25 275 0.0 0.0 0.00 0.00 0.00 76 1012.3
20260507071514 25 275 0.0 0.0 0.00 0.00 0.00 76 1012.4
20260507070014 25 275 0.0 0.0 0.00 0.00 0.00 75 1012.4
20260507064511 25 275 0.0 0.0 0.00 0.00 0.00 76 1012.4
20260507063010 25 275 0.0 0.0 0.00 0.00 0.00 77 1012.5
20260507061512 23 275 0.0 0.0 0.00 0.00 0.00 79 1012.5
20260507060008 22 275 0.0 0.0 0.00 0.00 0.00 80 1012.5
20260507054535 23 275 0.0 0.0 0.00 0.00 0.00 78 1012.6
20260507053032 24 275 0.0 0.0 0.00 0.00 0.00 76 1012.6
20260507051537 25 275 0.0 0.0 0.00 0.00 0.00 75 1012.6
20260507050026 26 275 0.0 0.0 0.00 0.00 0.00 73 1012.6
20260507044526 27 275 0.0 0.0 0.00 0.00 0.00 72 1012.7
20260507043024 25 275 0.0 0.0 0.00 0.00 0.00 73 1012.7
20260507041521 25 275 0.0 0.0 0.00 0.00 0.00 77 1012.8
20260507040020 25 275 0.0 0.0 0.00 0.00 0.00 74 1012.9
20260507034521 26 275 0.0 0.0 0.00 0.00 0.00 70 1012.9
20260507033011 27 275 0.0 0.0 0.00 0.00 0.00 68 1012.9
20260507031510 28 276 0.0 0.0 0.00 0.00 0.00 67 1012.9
20260507030002 30 275 0.0 0.0 0.00 0.00 0.00 64 1012.9
20260507024602 32 275 0.0 0.0 0.00 0.00 0.00 60 1012.8
20260507023056 37 360 0.0 0.0 0.00 0.00 0.00 54 1012.9
20260507021551 40 339 0.0 0.0 0.00 0.00 0.00 46 1012.9
20260507020052 42 339 0.0 0.0 0.00 0.00 0.00 45 1012.9
20260507014546 44 340 0.0 0.0 0.00 0.00 0.00 43 1013.0
20260507013045 47 345 0.0 0.0 0.00 0.00 0.00 41 1013.0